DateTimeUTC,F1_A11,F1_S11,BsB_S11,BsG_S11,BsR_S11,BbsB_S11,BbsG_S11,BbsR_S11,BaB_A11,BaG_A11,BaR_A11,Tu_S11,T_S11,Uu_S11,U_S11,P_S11,T1_A11
2021-07-04T16:00:00Z,00000200,20000000,,,,,,,0000.08,0000.34,0000.29,19.4,25.7,09.5,06.5,0670.2,31.2
2021-07-04T16:01:00Z,00000200,20000000,,,,,,,0000.04,-000.08,-000.38,19.3,25.7,09.6,06.5,0670.2,31.2
2021-07-04T16:02:00Z,00000200,20000000,,,,,,,-000.24,0000.18,0000.25,19.3,25.7,09.6,06.5,0670.2,31.2
2021-07-04T16:03:00Z,00000200,60000000,,,,,,,0000.10,-000.08,-000.06,19.3,25.7,09.6,06.5,0670.2,31.2
2021-07-04T16:04:00Z,00000200,40000000,-000.19,0000.66,0000.14,-000.06,0000.12,0000.03,-000.11,0000.18,-000.14,19.4,25.6,09.5,06.6,0671.1,31.2
2021-07-04T16:05:00Z,00000200,00000000,0000.56,0000.70,0000.14,0000.53,0000.12,0000.00,0000.64,0000.24,0000.37,19.5,25.6,09.7,06.7,0671.2,31.2
2021-07-04T16:06:00Z,00000200,00000000,0000.28,0000.20,0000.17,0000.17,0000.20,0000.16,-000.13,-000.38,0000.30,19.5,25.6,09.6,06.7,0671.2,31.2
2021-07-04T16:07:00Z,00000200,00000000,0000.73,0000.33,0000.39,0000.67,0000.18,0000.37,0000.36,0000.51,-000.16,19.5,25.6,09.6,06.7,0671.2,31.2
2021-07-04T16:08:00Z,00000200,00000000,0000.52,0000.39,0000.38,0000.12,0000.05,0000.06,0000.05,0000.20,0000.40,19.5,25.6,09.8,06.8,0671.3,31.2
2021-07-04T16:09:00Z,00000200,00000000,0000.25,0000.39,0000.44,-000.47,-000.00,-000.10,0000.49,0000.14,0000.17,19.5,25.6,09.8,06.8,0671.3,31.2
2021-07-04T16:10:00Z,00000200,00000000,0000.40,0000.44,0000.31,-000.08,0000.11,-000.16,-000.61,-000.07,-000.23,19.5,25.6,09.8,06.8,0671.2,31.2
2021-07-04T16:11:00Z,00000200,00000000,0000.28,0000.38,0000.49,0000.07,0000.21,-000.25,0000.29,-000.01,0000.30,19.6,25.6,09.7,06.8,0671.2,31.2
2021-07-04T16:12:00Z,00000200,00000000,0001.66,0000.06,0000.26,0000.26,0000.21,0000.21,0000.41,0000.75,0000.14,19.6,25.6,09.8,06.8,0671.2,31.2
2021-07-04T16:13:00Z,00000200,00000000,0000.40,0000.35,0000.12,0000.26,0000.24,-000.01,-000.03,-000.59,-000.31,19.6,25.6,09.8,06.8,0671.2,31.2
2021-07-04T16:14:00Z,00000200,00000000,0001.18,0000.69,0000.42,-000.10,0000.01,-000.06,0000.12,0000.40,0000.26,19.6,25.6,09.7,06.7,0671.2,31.2
2021-07-04T16:15:00Z,00000200,00000000,0000.45,0000.38,0000.26,-000.04,0000.19,0000.25,-000.09,0000.15,-000.04,19.6,25.6,09.7,06.8,0671.2,31.2
2021-07-04T16:16:00Z,00000200,00000000,0000.97,0000.34,0000.25,0000.47,0000.13,0000.12,0000.09,0000.19,-000.04,19.6,25.6,09.6,06.7,0671.1,31.2
2021-07-04T16:17:00Z,00000200,00000000,-000.29,0000.57,0000.42,0000.27,-000.07,0000.39,0000.06,-000.25,-000.02,19.6,25.6,09.6,06.7,0671.1,31.2
2021-07-04T16:18:00Z,00000200,00000000,0000.67,0000.69,-000.07,0000.23,0000.16,0000.20,0000.21,0000.18,0000.39,19.6,25.6,09.8,06.8,0671.2,31.2
2021-07-04T16:19:00Z,00000200,00000000,0000.79,0000.62,0000.28,0000.37,0000.00,-000.14,0000.36,0000.03,0000.24,19.6,25.6,09.9,06.9,0671.2,31.2
2021-07-04T16:20:00Z,00000200,00000000,0001.01,0000.43,0000.26,0000.24,0000.05,-000.37,-000.02,0000.48,-000.05,19.6,25.6,09.7,06.8,0671.1,31.2
2021-07-04T16:21:00Z,00000200,00000000,0000.57,0000.58,0000.36,0000.07,0000.17,-000.07,0000.01,-000.15,-000.02,19.6,25.6,09.6,06.7,0671.2,31.2
2021-07-04T16:22:00Z,00000200,00000000,0000.57,0000.28,0000.28,-000.01,-000.00,0000.35,0000.05,-000.03,0000.01,19.6,25.6,09.6,06.7,0671.1,31.2
2021-07-04T16:23:00Z,00000200,00000000,0000.81,0000.63,0000.35,0000.49,0000.25,0000.07,-000.09,-000.34,0000.13,19.6,25.6,09.6,06.7,0671.1,31.2
2021-07-04T16:24:00Z,00000200,00000000,0000.76,0000.41,0000.26,-000.09,0000.18,-000.18,0000.09,0000.57,-000.06,19.7,25.6,09.4,06.5,0671.1,31.2
2021-07-04T16:25:00Z,00000200,00000000,0000.88,0000.63,0000.44,0000.42,0000.16,0000.20,0000.41,-000.04,0000.17,19.7,25.6,09.5,06.6,0671.1,31.2
2021-07-04T16:26:00Z,00000200,00000000,0001.00,0000.73,0000.16,0000.40,-000.09,-000.02,-000.01,0000.18,0000.25,19.7,25.6,09.4,06.6,0671.1,31.2
2021-07-04T16:27:00Z,00000200,00000000,0000.73,0000.52,0000.45,0000.22,0000.06,0000.10,0000.18,-000.06,-000.05,19.7,25.6,09.4,06.5,0671.1,31.2
2021-07-04T16:28:00Z,00000200,00000000,0000.29,0000.34,0000.44,0000.64,0000.31,0000.09,0000.17,0000.39,-000.16,19.7,25.6,09.6,06.6,0671.1,31.2
2021-07-04T16:29:00Z,00000200,00000000,0001.15,0000.18,0000.55,-000.14,0000.36,0000.29,0000.06,-000.22,0000.15,19.7,25.7,09.5,06.6,0671.1,31.2
2021-07-04T16:30:00Z,00000200,00000000,0000.52,0000.49,0000.29,-000.30,0000.10,0000.11,0000.21,0000.52,0000.29,19.7,25.7,09.6,06.7,0671.1,31.2
2021-07-04T16:31:00Z,00000200,00000000,0000.47,0000.62,0000.15,0000.24,0000.11,-000.02,-000.04,-000.11,0000.24,19.7,25.7,09.6,06.7,0671.2,31.2
2021-07-04T16:32:00Z,00000200,00000000,0000.80,0000.35,-000.00,0000.29,0000.03,-000.04,0000.24,0000.12,-000.03,19.7,25.7,09.7,06.7,0671.1,31.2
2021-07-04T16:33:00Z,00000200,00000000,0000.86,0000.42,0000.31,0000.45,-000.20,0000.09,0000.13,-000.14,-000.21,19.7,25.7,09.7,06.8,0671.1,31.2
2021-07-04T16:34:00Z,00000200,00000000,0000.89,0000.35,0000.11,0000.02,0000.16,-000.04,0000.07,0000.02,0000.11,19.7,25.7,09.6,06.7,0671.1,31.2
2021-07-04T16:35:00Z,00000200,00000000,0000.61,0000.56,0000.27,0000.43,0000.37,0000.17,0000.04,0000.52,0000.18,19.7,25.7,09.5,06.6,0671.1,31.2
2021-07-04T16:36:00Z,00000200,00000000,0001.13,0000.44,0000.25,0000.11,0000.27,-000.16,0000.06,-000.16,0000.11,19.7,25.7,09.7,06.7,0671.1,31.2
2021-07-04T16:37:00Z,00000200,00000000,0000.49,0000.30,0000.27,0000.62,-000.14,0000.04,0000.27,0000.03,0000.04,19.7,25.7,09.6,06.7,0671.1,31.2
2021-07-04T16:38:00Z,00000200,00000000,0000.72,0000.56,0000.47,0000.21,0000.32,0000.02,0000.27,0000.50,0000.30,19.7,25.7,09.7,06.8,0671.2,31.2
2021-07-04T16:39:00Z,00000200,00000000,0000.62,0000.41,-000.02,0000.30,0000.22,-000.05,-000.05,0000.03,0000.06,19.7,25.7,09.7,06.8,0671.2,31.2
2021-07-04T16:40:00Z,00000200,00000000,0000.38,0000.31,0000.41,0000.12,0000.20,-000.07,0000.37,0000.05,0000.26,19.7,25.7,09.7,06.8,0671.2,31.2
2021-07-04T16:41:00Z,00000200,00000000,0001.25,0000.29,-000.03,0000.16,-000.04,-000.04,-000.00,0000.26,0000.18,19.7,25.7,09.8,06.8,0671.1,31.2
2021-07-04T16:42:00Z,00000200,00000000,0001.23,0000.54,0000.49,0000.04,-000.04,0000.10,0000.41,0000.46,-000.06,19.7,25.7,09.9,06.9,0671.2,31.2
2021-07-04T16:43:00Z,00000200,00000000,0000.58,0000.47,0000.37,0000.30,0000.16,0000.16,0000.21,0000.06,0000.33,19.7,25.7,10.1,07.1,0671.2,31.2
2021-07-04T16:44:00Z,00000200,00000000,0000.70,0000.58,0000.31,0000.12,0000.13,-000.06,-000.03,-000.00,-000.08,19.8,25.7,09.9,06.9,0671.2,31.2
2021-07-04T16:45:00Z,00000200,00000000,0000.28,0000.49,0000.16,0000.38,0000.22,-000.18,0000.11,-000.11,0000.05,19.7,25.7,10.1,07.0,0671.1,31.2
2021-07-04T16:46:00Z,00000200,00000000,0000.86,0000.18,0000.18,0000.33,-000.13,-000.29,0000.04,0000.31,0000.09,19.8,25.7,09.9,06.9,0671.1,31.2
2021-07-04T16:47:00Z,00000200,00000000,0001.08,0000.30,0000.34,0000.33,0000.27,0000.16,0000.03,0000.36,0000.24,19.8,25.7,10.1,07.0,0671.1,31.2
2021-07-04T16:48:00Z,00000200,00000000,0000.76,0000.16,0000.16,0000.48,0000.15,-000.09,0000.18,-000.20,-000.12,19.8,25.7,10.2,07.1,0671.1,31.2
2021-07-04T16:49:00Z,00000200,00000000,0000.45,0000.33,0000.20,0000.46,0000.11,-000.30,0000.23,-000.03,0000.06,19.8,25.7,10.1,07.0,0671.1,31.2
2021-07-04T16:50:00Z,00000200,00000000,0000.45,0000.52,0000.44,-000.11,0000.31,0000.30,0000.78,0000.50,0000.31,19.8,25.8,10.2,07.1,0671.1,31.2
2021-07-04T16:51:00Z,00000200,00000000,0001.24,0000.49,0000.35,-000.15,0000.25,0000.29,-000.47,0000.34,0000.16,19.8,25.7,10.1,07.0,0671.1,31.2
2021-07-04T16:52:00Z,00000200,00000000,0000.95,0000.53,0000.24,0000.84,-000.13,-000.24,0000.30,-000.11,-000.21,19.8,25.7,10.3,07.2,0671.1,31.2
2021-07-04T16:53:00Z,00000200,00000000,0001.36,0000.47,0000.39,0000.02,0000.34,-000.04,0000.15,0000.10,0000.25,19.8,25.8,10.2,07.1,0671.1,31.2
2021-07-04T16:54:00Z,00000200,00000000,0000.62,0000.57,0000.28,0000.26,-000.05,0000.19,-000.41,-000.13,0000.25,19.8,25.8,10.1,07.1,0671.1,31.2
2021-07-04T16:55:00Z,00000200,00000000,0000.20,0000.68,0000.31,0000.05,0000.28,0000.04,0000.50,-000.09,-000.30,19.8,25.8,10.1,07.0,0671.1,31.2
2021-07-04T16:56:00Z,00000200,00000000,0001.86,0000.38,0000.50,0000.02,0000.39,0000.18,-000.00,0000.16,-000.02,19.8,25.8,10.1,07.0,0671.1,31.2
2021-07-04T16:57:00Z,00000200,40000000,,,,,,,-000.11,0000.21,0000.42,19.8,25.8,09.8,06.8,0671.0,31.2
2021-07-04T16:58:00Z,00000200,60000000,,,,,,,-000.29,-000.29,-000.23,19.6,25.9,10.0,06.8,0670.1,31.2
2021-07-04T16:59:00Z,00000200,20000000,,,,,,,0000.33,-000.05,-000.03,19.6,26.0,10.0,06.8,0670.1,31.2
